Location: Rotheul
(50.2849°N, 11.2349°E)
Time: 01:25:31
(UTC+02:00)

ISS - Pass Details

Date: 14 July 2018
Orbit: 402 x 408 km, 51.6° (Epoch: 18 July)

Event Time Altitude Azimuth Distance (km) Brightness Sun altitude
Exits shadow 02:40:22 29° 248° (WSW) 771 -2.8 -15.9°
Maximum altitude 02:41:53 82° 165° (SSE) 416 -3.9 -15.8°
Drops below altitude 10° 02:45:11 10° 75° (ENE) 1,472 -0.5 -15.6°
Sets 02:47:17 0° 75° (ENE) 2,335 0.6 -15.5°
